Погода в Беслане

Россия / Республика Северная Осетия — Алания     43°11′37″N   44°32′01″E
темп.,
°C
ветер,
м/с
пор.,
м/с
влажн.,
%
обл.,
%
осадки,
мм/ч
давл.,
гПа
погр.,
м
18 сентября, сб
сб1800:00+12в229189 0.0 101655
03:00+11в129499 0.0 101622
06:00+10вюв119568 0.0 101711
09:00+14ссв1278100 0.0 1016303
12:00+21св225038 0.0 10151254
15:00+23всв334638 0.0 10141657
18:00+19в47629 0.0 1014150
21:00+15в478010 0.0 1015154
19 сентября, вс
вс1900:00+13в24935 0.0 101573
03:00+12св11937 0.0 101511
06:00+12вюв1193100 0.0 101510
09:00+19св116489 0.0 1015458
12:00+24св2247100 0.0 10131203
15:00+25всв3243100 0.0 10121572
18:00+20в355557 0.0 101283
21:00+17в356657 0.0 1013114
20 сентября, пн
пн2000:00+15вюв117944 0.0 101311
03:00+14ююз018593 0.0 101310
06:00+13юв118314 0.0 101310
09:00+20сз215715 0.0 1013388
12:00+25ссз214014 0.0 10121395
15:00+26ссв3237100 0.0 10111932
18:00+17в227889 2.6 101420
21:00+16юз11848 4.3 101512
21 сентября, вт
вт2100:00+15ю11841 0.0 101511
03:00+15ююв11865 0.0 101511
06:00+14ю11865 0.0 101611
09:00+20вюв12615 0.0 1015385
12:00+26всв334028 0.0 10121215
15:00+27в33355 0.0 10111516
18:00+22в344921 0.0 101146
21:00+17з3572100 0.2 101585
22 сентября, ср
ср2200:00+15з1186100 0.0 101519
03:00+15сз2292100 0.0 101531
06:00+15зюз0195100 0.3 1016193
09:00+16св1192100 0.9 1016199
12:00+16св3489100 0.8 1016444
15:00+12сз2289100 2.1 1017263
18:00+12сз1190100 0.6 1017191
21:00+11ссз2291100 0.8 1017216